Location: Unspecified
(0.0000°N, 0.0000°E)
Time: 11:49:36
(UTC+02:00)

Cosmos 1300 - Visible Passes

Search period start: 01 August 2014 00:00
Search period end: 11 August 2014 00:00
Orbit: 532 x 532 km, 82.5° (Epoch: 31 July)

Date Brightness Start Highest point End Pass type
(mag) Time Alt. Az. Time Alt. Az. Time Alt. Az.
01 Aug 3.5 07:41:31 10° SSW 07:45:00 31° W 07:48:29 10° NNW visible
02 Aug 3.4 07:31:34 10° SSW 07:35:07 34° W 07:38:40 10° NNW visible
03 Aug 3.3 07:21:37 10° SSW 07:25:14 37° W 07:28:50 10° NNW visible
04 Aug 3.2 07:11:40 10° SSW 07:15:20 40° W 07:19:00 10° NNW visible
05 Aug 3.1 07:02:51 18° SSW 07:05:26 43° W 07:09:08 10° NNW visible
06 Aug 2.9 06:54:12 33° SW 06:55:32 47° W 06:59:16 10° NNW visible
07 Aug 2.8 06:45:30 50° W 06:45:37 51° W 06:49:24 10° N visible
08 Aug 3.4 06:36:43 41° NW 06:36:43 41° NW 06:39:31 10° N visible
09 Aug 4.3 06:27:52 25° NNW 06:27:52 25° NNW 06:29:37 10° N visible
10 Aug 5.1 06:18:57 15° N 06:18:57 15° N 06:19:42 10° N visible
